Time,TemperatureF,DewpointF,PressureIn,WindDirection,WindDirectionDegrees,WindSpeedMPH,WindSpeedGustMPH,Humidity,HourlyPrecipIn,Conditions,Clouds,dailyrainin,SoftwareType,DateUTC
2013-08-10 00:03:00,67.1,57.0,30.01,SSE,167,0.0,1.0,70,0.00,CLR,CLR,0.00,WeatherDisplay:10.37,2013-08-10 07:03:00,
2013-08-10 00:08:00,67.0,57.7,30.01,SSE,167,0.0,1.0,72,0.00,CLR,CLR,0.00,WeatherDisplay:10.37,2013-08-10 07:08:00,
2013-08-10 00:18:00,66.7,57.8,30.03,SSE,167,0.0,0.0,73,0.00,CLR,CLR,0.00,WeatherDisplay:10.37,2013-08-10 07:18:00,
2013-08-10 00:23:00,66.5,58.0,30.04,SSE,167,0.0,0.0,74,0.00,CLR,CLR,0.00,WeatherDisplay:10.37,2013-08-10 07:23:00,
2013-08-10 00:28:00,66.3,58.2,30.04,SSE,167,0.0,0.0,75,0.00,CLR,CLR,0.00,WeatherDisplay:10.37,2013-08-10 07:28:00,
2013-08-10 00:33:00,66.2,58.0,30.04,SSE,167,0.0,0.0,75,0.00,CLR,CLR,0.00,WeatherDisplay:10.37,2013-08-10 07:33:00,
2013-08-10 00:38:00,66.1,58.3,30.03,SSE,167,0.0,0.0,76,0.00,CLR,CLR,0.00,WeatherDisplay:10.37,2013-08-10 07:38:00,
2013-08-10 00:43:00,66.0,58.9,30.02,SSE,167,0.0,1.0,78,0.01,RA,RA,0.01,WeatherDisplay:10.37,2013-08-10 07:43:00,
2013-08-10 00:48:00,65.8,59.5,30.01,SSE,167,0.0,1.0,80,0.00,RA,RA,0.01,WeatherDisplay:10.37,2013-08-10 07:48:00,
2013-08-10 00:53:00,65.4,59.8,30.02,SSE,167,0.0,1.0,82,0.00,CLR,CLR,0.01,WeatherDisplay:10.37,2013-08-10 07:53:00,
2013-08-10 00:58:00,65.1,59.8,30.00,SW,222,0.0,3.0,83,0.01,RA,RA,0.03,WeatherDisplay:10.37,2013-08-10 07:58:00,
2013-08-10 01:03:00,64.5,59.8,30.02,North,5,0.0,2.0,85,0.02,RA,RA,0.04,WeatherDisplay:10.37,2013-08-10 08:03:00,
2013-08-10 01:08:00,63.9,59.6,30.03,East,90,0.0,2.0,86,0.01,RA,RA,0.05,WeatherDisplay:10.37,2013-08-10 08:08:00,
2013-08-10 01:13:00,63.4,59.5,30.03,SE,129,0.0,0.0,87,0.01,RA,RA,0.06,WeatherDisplay:10.37,2013-08-10 08:13:00,
2013-08-10 01:18:00,63.2,59.6,30.03,SE,130,0.0,0.0,88,0.00,RA,RA,0.06,WeatherDisplay:10.37,2013-08-10 08:18:00,
2013-08-10 01:23:00,63.0,59.4,30.03,SE,130,0.0,1.0,88,0.00,CLR,CLR,0.06,WeatherDisplay:10.37,2013-08-10 08:23:00,
2013-08-10 01:28:00,63.0,59.7,30.02,SE,131,0.0,0.0,89,0.01,RA,RA,0.07,WeatherDisplay:10.37,2013-08-10 08:28:00,
2013-08-10 01:33:00,62.9,59.6,30.03,SE,131,0.0,0.0,89,0.00,RA,RA,0.07,WeatherDisplay:10.37,2013-08-10 08:33:00,
2013-08-10 01:38:00,62.8,59.9,30.02,SE,131,0.0,0.0,90,0.00,CLR,CLR,0.07,WeatherDisplay:10.37,2013-08-10 08:38:00,
2013-08-10 01:43:00,62.8,59.8,30.02,SE,131,0.0,0.0,90,0.00,CLR,CLR,0.07,WeatherDisplay:10.37,2013-08-10 08:43:00,
2013-08-10 01:53:00,62.7,60.1,30.02,SE,130,0.0,0.0,91,0.00,CLR,CLR,0.07,WeatherDisplay:10.37,2013-08-10 08:53:00,
2013-08-10 01:58:00,62.7,60.0,30.02,SE,130,0.0,1.0,91,0.00,CLR,CLR,0.07,WeatherDisplay:10.37,2013-08-10 08:58:00,
2013-08-10 02:03:00,62.7,60.0,30.02,SE,130,0.0,0.0,91,0.00,CLR,CLR,0.07,WeatherDisplay:10.37,2013-08-10 09:03:00,
2013-08-10 02:13:00,62.5,59.8,30.02,SE,130,0.0,0.0,91,0.01,RA,RA,0.08,WeatherDisplay:10.37,2013-08-10 09:13:00,
2013-08-10 02:18:00,62.5,59.8,30.02,SE,130,0.0,0.0,91,0.00,RA,RA,0.08,WeatherDisplay:10.37,2013-08-10 09:18:00,
2013-08-10 02:23:00,62.5,59.8,30.03,SE,130,0.0,0.0,91,0.00,CLR,CLR,0.08,WeatherDisplay:10.37,2013-08-10 09:23:00,
2013-08-10 02:28:00,62.4,59.7,30.02,SE,130,0.0,0.0,91,0.00,CLR,CLR,0.08,WeatherDisplay:10.37,2013-08-10 09:28:00,
2013-08-10 02:33:00,62.4,59.7,30.02,SE,130,0.0,1.0,91,0.00,CLR,CLR,0.08,WeatherDisplay:10.37,2013-08-10 09:33:00,
2013-08-10 02:38:00,62.4,59.7,30.01,SE,130,0.0,0.0,91,0.00,CLR,CLR,0.08,WeatherDisplay:10.37,2013-08-10 09:38:00,
2013-08-10 02:43:00,62.3,59.9,30.00,SE,130,0.0,0.0,92,0.00,CLR,CLR,0.08,WeatherDisplay:10.37,2013-08-10 09:43:00,
2013-08-10 02:48:00,62.3,60.0,30.00,SE,130,0.0,0.0,92,0.00,CLR,CLR,0.08,WeatherDisplay:10.37,2013-08-10 09:48:00,
2013-08-10 02:53:00,62.4,60.0,30.00,SE,130,0.0,0.0,92,0.00,CLR,CLR,0.08,WeatherDisplay:10.37,2013-08-10 09:53:00,
2013-08-10 02:58:00,62.3,60.0,30.01,SE,130,0.0,0.0,92,0.00,CLR,CLR,0.08,WeatherDisplay:10.37,2013-08-10 09:58:00,
2013-08-10 03:03:00,62.3,59.9,30.00,SE,130,0.0,0.0,92,0.00,CLR,CLR,0.08,WeatherDisplay:10.37,2013-08-10 10:03:00,
2013-08-10 03:08:00,62.2,59.8,30.00,SE,130,0.0,0.0,92,0.00,CLR,CLR,0.08,WeatherDisplay:10.37,2013-08-10 10:08:00,
2013-08-10 03:13:00,62.2,59.8,30.00,SE,130,0.0,0.0,92,0.00,CLR,CLR,0.08,WeatherDisplay:10.37,2013-08-10 10:13:00,
2013-08-10 03:18:00,62.2,59.8,30.00,SE,130,0.0,0.0,92,0.00,CLR,CLR,0.08,WeatherDisplay:10.37,2013-08-10 10:18:00,
2013-08-10 03:23:00,62.1,59.8,30.00,SE,130,0.0,0.0,92,0.00,CLR,CLR,0.08,WeatherDisplay:10.37,2013-08-10 10:23:00,
2013-08-10 03:28:00,62.1,59.7,30.00,SE,130,0.0,0.0,92,0.00,CLR,CLR,0.08,WeatherDisplay:10.37,2013-08-10 10:28:00,
2013-08-10 03:33:00,62.0,59.6,30.01,SE,130,0.0,0.0,92,0.00,CLR,CLR,0.08,WeatherDisplay:10.37,2013-08-10 10:33:00,
2013-08-10 03:38:00,62.0,59.6,30.00,SE,130,0.0,0.0,92,0.00,CLR,CLR,0.08,WeatherDisplay:10.37,2013-08-10 10:38:00,
2013-08-10 03:43:00,61.9,59.5,30.00,SE,130,0.0,1.0,92,0.00,CLR,CLR,0.08,WeatherDisplay:10.37,2013-08-10 10:43:00,
2013-08-10 03:48:00,61.9,59.5,30.00,SE,130,0.0,0.0,92,0.00,CLR,CLR,0.08,WeatherDisplay:10.37,2013-08-10 10:48:00,
2013-08-10 03:53:00,61.9,59.5,30.00,SE,130,0.0,0.0,92,0.00,CLR,CLR,0.08,WeatherDisplay:10.37,2013-08-10 10:53:00,
2013-08-10 03:58:00,61.8,59.5,30.00,SE,130,0.0,0.0,92,0.00,CLR,CLR,0.08,WeatherDisplay:10.37,2013-08-10 10:58:00,
2013-08-10 04:03:00,61.8,59.5,30.00,SE,130,0.0,0.0,92,0.00,CLR,CLR,0.08,WeatherDisplay:10.37,2013-08-10 11:03:00,
2013-08-10 04:08:00,61.7,59.4,30.01,SE,130,0.0,1.0,92,0.00,CLR,CLR,0.08,WeatherDisplay:10.37,2013-08-10 11:08:00,
2013-08-10 04:13:00,61.6,59.3,30.01,SE,130,0.0,0.0,92,0.00,CLR,CLR,0.08,WeatherDisplay:10.37,2013-08-10 11:13:00,
2013-08-10 04:18:00,61.5,59.1,30.01,SE,130,0.0,0.0,92,0.00,CLR,CLR,0.08,WeatherDisplay:10.37,2013-08-10 11:18:00,
2013-08-10 04:23:00,61.3,59.0,30.01,SE,130,0.0,0.0,92,0.00,CLR,CLR,0.08,WeatherDisplay:10.37,2013-08-10 11:23:00,
2013-08-10 04:28:00,61.3,58.9,30.01,SE,130,0.0,0.0,92,0.00,CLR,CLR,0.08,WeatherDisplay:10.37,2013-08-10 11:28:00,
2013-08-10 04:33:00,61.2,58.8,30.02,SE,130,0.0,1.0,92,0.00,CLR,CLR,0.08,WeatherDisplay:10.37,2013-08-10 11:33:00,
2013-08-10 04:38:00,61.2,59.2,30.02,SE,130,0.0,0.0,93,0.00,CLR,CLR,0.08,WeatherDisplay:10.37,2013-08-10 11:38:00,
2013-08-10 04:43:00,61.2,59.1,30.03,SE,130,0.0,0.0,93,0.00,CLR,CLR,0.08,WeatherDisplay:10.37,2013-08-10 11:43:00,
2013-08-10 04:48:00,61.2,59.2,30.03,SE,130,0.0,0.0,93,0.00,CLR,CLR,0.08,WeatherDisplay:10.37,2013-08-10 11:48:00,
2013-08-10 04:53:00,61.2,59.2,30.03,SE,130,0.0,0.0,93,0.00,CLR,CLR,0.08,WeatherDisplay:10.37,2013-08-10 11:53:00,
2013-08-10 04:58:00,61.2,59.1,30.03,SE,130,0.0,0.0,93,0.00,CLR,CLR,0.08,WeatherDisplay:10.37,2013-08-10 11:58:00,
2013-08-10 05:03:00,61.1,59.1,30.03,SE,130,0.0,1.0,93,0.00,CLR,CLR,0.08,WeatherDisplay:10.37,2013-08-10 12:03:00,
2013-08-10 05:08:00,61.0,59.0,30.03,SE,130,0.0,1.0,93,0.00,CLR,CLR,0.08,WeatherDisplay:10.37,2013-08-10 12:08:00,
2013-08-10 05:13:00,61.0,58.9,30.03,SE,130,0.0,0.0,93,0.00,CLR,CLR,0.08,WeatherDisplay:10.37,2013-08-10 12:13:00,
2013-08-10 05:18:00,60.9,58.9,30.03,SE,130,0.0,0.0,93,0.00,CLR,CLR,0.08,WeatherDisplay:10.37,2013-08-10 12:18:00,
2013-08-10 05:23:00,60.8,58.8,30.03,SE,130,0.0,0.0,93,0.00,CLR,CLR,0.08,WeatherDisplay:10.37,2013-08-10 12:23:00,
2013-08-10 05:28:00,60.7,58.7,30.03,SE,130,0.0,0.0,93,0.00,CLR,CLR,0.08,WeatherDisplay:10.37,2013-08-10 12:28:00,
2013-08-10 05:33:00,60.7,58.7,30.03,SE,130,0.0,0.0,93,0.00,CLR,CLR,0.08,WeatherDisplay:10.37,2013-08-10 12:33:00,
2013-08-10 05:38:00,60.7,58.6,30.04,SE,130,0.0,0.0,93,0.00,CLR,CLR,0.08,WeatherDisplay:10.37,2013-08-10 12:38:00,
2013-08-10 05:43:00,60.6,58.6,30.04,SE,130,0.0,0.0,93,0.00,CLR,CLR,0.08,WeatherDisplay:10.37,2013-08-10 12:43:00,
2013-08-10 05:48:00,60.6,58.6,30.04,SE,130,0.0,0.0,93,0.00,CLR,CLR,0.08,WeatherDisplay:10.37,2013-08-10 12:48:00,
2013-08-10 05:53:00,60.7,58.6,30.04,SE,130,0.0,1.0,93,0.00,CLR,CLR,0.08,WeatherDisplay:10.37,2013-08-10 12:53:00,
2013-08-10 05:58:00,60.7,58.7,30.04,SE,130,0.0,0.0,93,0.00,CLR,CLR,0.08,WeatherDisplay:10.37,2013-08-10 12:58:00,
2013-08-10 06:03:00,60.7,58.7,30.04,SE,130,0.0,0.0,93,0.00,CLR,CLR,0.08,WeatherDisplay:10.37,2013-08-10 13:03:00,
2013-08-10 06:08:00,60.8,58.8,30.04,SE,130,0.0,0.0,93,0.00,CLR,CLR,0.08,WeatherDisplay:10.37,2013-08-10 13:08:00,
2013-08-10 06:13:00,60.8,58.8,30.04,SE,130,0.0,0.0,93,0.00,CLR,CLR,0.08,WeatherDisplay:10.37,2013-08-10 13:13:00,
2013-08-10 06:18:00,60.8,58.8,30.04,SE,130,0.0,0.0,93,0.00,CLR,CLR,0.08,WeatherDisplay:10.37,2013-08-10 13:18:00,
2013-08-10 06:23:00,60.8,58.8,30.05,SE,130,0.0,0.0,93,0.00,CLR,CLR,0.08,WeatherDisplay:10.37,2013-08-10 13:23:00,
2013-08-10 06:28:00,60.8,58.8,30.05,SE,130,0.0,0.0,93,0.00,CLR,CLR,0.08,WeatherDisplay:10.37,2013-08-10 13:28:00,
2013-08-10 06:33:00,60.8,58.8,30.05,SE,130,0.0,0.0,93,0.00,CLR,CLR,0.08,WeatherDisplay:10.37,2013-08-10 13:33:00,
2013-08-10 06:38:00,60.8,58.8,30.06,SE,130,0.0,0.0,93,0.00,CLR,CLR,0.08,WeatherDisplay:10.37,2013-08-10 13:38:00,
2013-08-10 06:43:00,60.8,58.8,30.06,SE,130,0.0,0.0,93,0.00,CLR,CLR,0.08,WeatherDisplay:10.37,2013-08-10 13:43:00,
2013-08-10 06:48:00,60.8,58.7,30.06,SE,130,0.0,0.0,93,0.00,CLR,CLR,0.08,WeatherDisplay:10.37,2013-08-10 13:48:00,
2013-08-10 06:53:00,60.7,58.7,30.06,SE,130,0.0,0.0,93,0.00,CLR,CLR,0.08,WeatherDisplay:10.37,2013-08-10 13:53:00,
2013-08-10 06:58:00,60.7,58.7,30.06,SE,130,0.0,0.0,93,0.00,CLR,CLR,0.08,WeatherDisplay:10.37,2013-08-10 13:58:00,
2013-08-10 07:03:00,60.7,58.6,30.06,SE,130,0.0,0.0,93,0.00,RA,RA,0.00,WeatherDisplay:10.37,2013-08-10 14:03:00,
2013-08-10 07:08:00,60.7,58.7,30.06,SE,130,0.0,1.0,93,0.00,RA,RA,0.00,WeatherDisplay:10.37,2013-08-10 14:08:00,
2013-08-10 07:13:00,60.7,58.7,30.06,SE,130,0.0,1.0,93,0.00,CLR,CLR,0.00,WeatherDisplay:10.37,2013-08-10 14:13:00,
2013-08-10 07:23:00,60.7,58.7,30.07,SE,130,0.0,1.0,93,0.00,CLR,CLR,0.00,WeatherDisplay:10.37,2013-08-10 14:23:00,
2013-08-10 07:28:00,60.7,58.7,30.07,SE,130,0.0,0.0,93,0.00,CLR,CLR,0.00,WeatherDisplay:10.37,2013-08-10 14:28:00,
2013-08-10 07:33:00,60.8,58.7,30.07,SE,130,0.0,0.0,93,0.00,CLR,CLR,0.00,WeatherDisplay:10.37,2013-08-10 14:33:00,
2013-08-10 07:38:00,60.8,58.8,30.07,South,171,0.0,2.0,93,0.00,CLR,CLR,0.00,WeatherDisplay:10.37,2013-08-10 14:38:00,
2013-08-10 07:43:00,60.9,58.9,30.07,SSW,212,0.0,1.0,93,0.00,CLR,CLR,0.00,WeatherDisplay:10.37,2013-08-10 14:43:00,
2013-08-10 07:48:00,60.9,58.9,30.08,SSW,212,0.0,2.0,93,0.00,CLR,CLR,0.00,WeatherDisplay:10.37,2013-08-10 14:48:00,
2013-08-10 07:53:00,61.0,58.9,30.07,SSW,212,0.0,0.0,93,0.00,CLR,CLR,0.00,WeatherDisplay:10.37,2013-08-10 14:53:00,
2013-08-10 07:58:00,61.1,59.1,30.08,SSW,212,0.0,0.0,93,0.00,CLR,CLR,0.00,WeatherDisplay:10.37,2013-08-10 14:58:00,
2013-08-10 08:03:00,61.1,59.1,30.08,SSW,212,0.0,1.0,93,0.00,CLR,CLR,0.00,WeatherDisplay:10.37,2013-08-10 15:03:00,
2013-08-10 08:08:00,61.1,59.1,30.08,SSW,212,0.0,1.0,93,0.00,CLR,CLR,0.00,WeatherDisplay:10.37,2013-08-10 15:08:00,
2013-08-10 08:13:00,61.2,59.2,30.08,SSW,212,0.0,1.0,93,0.00,CLR,CLR,0.00,WeatherDisplay:10.37,2013-08-10 15:13:00,
2013-08-10 08:18:00,61.3,59.3,30.08,SSW,212,0.0,0.0,93,0.00,CLR,CLR,0.00,WeatherDisplay:10.37,2013-08-10 15:18:00,
2013-08-10 08:23:00,61.4,59.7,30.08,SSW,212,0.0,1.0,94,0.00,CLR,CLR,0.00,WeatherDisplay:10.37,2013-08-10 15:23:00,
2013-08-10 08:28:00,61.5,59.5,30.08,SSW,212,0.0,1.0,93,0.00,CLR,CLR,0.00,WeatherDisplay:10.37,2013-08-10 15:28:00,
2013-08-10 08:33:00,61.6,59.6,30.08,SSW,212,0.0,2.0,93,0.00,CLR,CLR,0.00,WeatherDisplay:10.37,2013-08-10 15:33:00,
2013-08-10 08:38:00,61.8,59.8,30.08,SSW,212,0.0,1.0,93,0.00,CLR,CLR,0.00,WeatherDisplay:10.37,2013-08-10 15:38:00,
2013-08-10 08:43:00,62.0,59.9,30.08,SSW,212,0.0,1.0,93,0.00,CLR,CLR,0.00,WeatherDisplay:10.37,2013-08-10 15:43:00,
2013-08-10 08:48:00,62.1,60.1,30.08,SSW,212,0.0,2.0,93,0.00,CLR,CLR,0.00,WeatherDisplay:10.37,2013-08-10 15:48:00,
2013-08-10 08:53:00,62.1,60.1,30.08,SW,226,1.0,3.0,93,0.00,CLR,CLR,0.00,WeatherDisplay:10.37,2013-08-10 15:53:00,
2013-08-10 08:58:00,62.2,60.2,30.09,West,261,0.0,1.0,93,0.00,CLR,CLR,0.00,WeatherDisplay:10.37,2013-08-10 15:58:00,
2013-08-10 09:03:00,62.3,60.2,30.09,SW,222,0.0,3.0,93,0.00,OVC,OVC,0.00,WeatherDisplay:10.37,2013-08-10 16:03:00,
2013-08-10 09:08:00,62.3,60.2,30.09,SSE,167,0.0,1.0,93,0.00,OVC,OVC,0.00,WeatherDisplay:10.37,2013-08-10 16:08:00,
2013-08-10 09:13:00,62.3,59.9,30.09,SW,229,0.0,5.0,92,0.00,OVC,OVC,0.00,WeatherDisplay:10.37,2013-08-10 16:13:00,
2013-08-10 09:18:00,62.3,59.9,30.09,West,273,1.0,3.0,92,0.00,OVC,OVC,0.00,WeatherDisplay:10.37,2013-08-10 16:18:00,
2013-08-10 09:28:00,62.2,59.8,30.09,West,264,0.0,4.0,92,0.00,OVC,OVC,0.00,WeatherDisplay:10.37,2013-08-10 16:28:00,
2013-08-10 09:33:00,62.2,59.8,30.09,West,268,1.0,4.0,92,0.00,OVC,OVC,0.00,WeatherDisplay:10.37,2013-08-10 16:33:00,
2013-08-10 09:38:00,62.1,59.7,30.09,West,277,0.0,1.0,92,0.00,OVC,OVC,0.00,WeatherDisplay:10.37,2013-08-10 16:38:00,
2013-08-10 09:43:00,62.1,59.7,30.09,West,275,1.0,2.0,92,0.00,OVC,OVC,0.00,WeatherDisplay:10.37,2013-08-10 16:43:00,
2013-08-10 09:48:00,62.1,59.7,30.10,West,267,0.0,1.0,92,0.00,OVC,OVC,0.00,WeatherDisplay:10.37,2013-08-10 16:48:00,
2013-08-10 09:53:00,62.0,59.3,30.10,WSW,256,0.0,1.0,91,0.00,OVC,OVC,0.00,WeatherDisplay:10.37,2013-08-10 16:53:00,
2013-08-10 09:58:00,62.0,59.3,30.10,WSW,242,0.0,1.0,91,0.00,OVC,OVC,0.00,WeatherDisplay:10.37,2013-08-10 16:58:00,
2013-08-10 10:03:00,62.1,59.7,30.10,SW,227,1.0,2.0,92,0.00,OVC,OVC,0.00,WeatherDisplay:10.37,2013-08-10 17:03:00,
2013-08-10 10:08:00,62.1,59.7,30.09,SW,221,0.0,2.0,92,0.00,OVC,OVC,0.00,WeatherDisplay:10.37,2013-08-10 17:08:00,
2013-08-10 10:13:00,62.3,59.9,30.10,WSW,255,0.0,2.0,92,0.00,OVC,OVC,0.00,WeatherDisplay:10.37,2013-08-10 17:13:00,
2013-08-10 10:18:00,62.3,59.6,30.10,West,277,0.0,1.0,91,0.00,OVC,OVC,0.00,WeatherDisplay:10.37,2013-08-10 17:18:00,
2013-08-10 10:23:00,62.4,59.7,30.10,West,265,1.0,2.0,91,0.00,OVC,OVC,0.00,WeatherDisplay:10.37,2013-08-10 17:23:00,
2013-08-10 10:28:00,62.3,59.6,30.10,WSW,245,0.0,1.0,91,0.00,OVC,OVC,0.00,WeatherDisplay:10.37,2013-08-10 17:28:00,
2013-08-10 10:33:00,62.4,59.7,30.10,WSW,237,0.0,1.0,91,0.00,OVC,OVC,0.00,WeatherDisplay:10.37,2013-08-10 17:33:00,
2013-08-10 10:38:00,62.6,59.9,30.10,WSW,237,0.0,1.0,91,0.00,OVC,OVC,0.00,WeatherDisplay:10.37,2013-08-10 17:38:00,
2013-08-10 10:43:00,62.5,59.8,30.10,WSW,237,0.0,1.0,91,0.00,OVC,OVC,0.00,WeatherDisplay:10.37,2013-08-10 17:43:00,
2013-08-10 10:48:00,62.6,60.0,30.10,WSW,237,0.0,1.0,91,0.00,OVC,OVC,0.00,WeatherDisplay:10.37,2013-08-10 17:48:00,
2013-08-10 10:53:00,62.8,60.1,30.10,WSW,240,0.0,1.0,91,0.00,OVC,OVC,0.00,WeatherDisplay:10.37,2013-08-10 17:53:00,
2013-08-10 10:58:00,63.0,60.3,30.10,WSW,245,0.0,1.0,91,0.00,OVC,OVC,0.00,WeatherDisplay:10.37,2013-08-10 17:58:00,
2013-08-10 11:03:00,63.2,60.5,30.10,WSW,247,0.0,0.0,91,0.00,OVC,OVC,0.00,WeatherDisplay:10.37,2013-08-10 18:03:00,
2013-08-10 11:08:00,63.3,60.7,30.11,WSW,247,0.0,1.0,91,0.00,OVC,OVC,0.00,WeatherDisplay:10.37,2013-08-10 18:08:00,
2013-08-10 11:13:00,63.6,60.9,30.11,WSW,247,0.0,1.0,91,0.00,OVC,OVC,0.00,WeatherDisplay:10.37,2013-08-10 18:13:00,
2013-08-10 11:18:00,63.6,60.3,30.11,WSW,247,0.0,1.0,89,0.00,OVC,OVC,0.00,WeatherDisplay:10.37,2013-08-10 18:18:00,
2013-08-10 11:23:00,63.6,60.3,30.11,WSW,247,0.0,1.0,89,0.00,OVC,OVC,0.00,WeatherDisplay:10.37,2013-08-10 18:23:00,
2013-08-10 11:28:00,63.7,60.4,30.11,West,262,0.0,2.0,89,0.00,OVC,OVC,0.00,WeatherDisplay:10.37,2013-08-10 18:28:00,
2013-08-10 11:33:00,63.9,60.9,30.11,WSW,256,0.0,3.0,90,0.00,OVC,OVC,0.00,WeatherDisplay:10.37,2013-08-10 18:33:00,
2013-08-10 11:38:00,64.1,60.8,30.11,SW,234,0.0,2.0,89,0.00,OVC,OVC,0.00,WeatherDisplay:10.37,2013-08-10 18:38:00,
2013-08-10 11:43:00,64.3,60.7,30.11,SW,236,0.0,2.0,88,0.00,OVC,OVC,0.00,WeatherDisplay:10.37,2013-08-10 18:43:00,
2013-08-10 11:48:00,64.4,60.7,30.11,WSW,249,0.0,3.0,88,0.00,OVC,OVC,0.00,WeatherDisplay:10.37,2013-08-10 18:48:00,
2013-08-10 11:53:00,64.4,60.8,30.10,WSW,255,0.0,0.0,88,0.00,OVC,OVC,0.00,WeatherDisplay:10.37,2013-08-10 18:53:00,
2013-08-10 11:58:00,64.5,60.5,30.10,WSW,255,0.0,1.0,87,0.00,OVC,OVC,0.00,WeatherDisplay:10.37,2013-08-10 18:58:00,
2013-08-10 12:03:00,64.7,61.4,30.11,WSW,255,0.0,2.0,89,0.00,OVC,OVC,0.00,WeatherDisplay:10.37,2013-08-10 19:03:00,
2013-08-10 12:08:00,65.1,61.8,30.11,WSW,251,0.0,2.0,89,0.00,OVC,OVC,0.00,WeatherDisplay:10.37,2013-08-10 19:08:00,
2013-08-10 12:13:00,65.5,61.9,30.10,WSW,239,0.0,2.0,88,0.00,OVC,OVC,0.00,WeatherDisplay:10.37,2013-08-10 19:13:00,
2013-08-10 12:18:00,65.6,61.3,30.10,SSW,196,0.0,3.0,86,0.00,OVC,OVC,0.00,WeatherDisplay:10.37,2013-08-10 19:18:00,
2013-08-10 12:23:00,66.0,62.0,30.10,South,181,1.0,3.0,87,0.00,OVC,OVC,0.00,WeatherDisplay:10.37,2013-08-10 19:23:00,
2013-08-10 12:28:00,66.5,61.8,30.10,WSW,243,1.0,5.0,85,0.00,OVC,OVC,0.00,WeatherDisplay:10.37,2013-08-10 19:28:00,
2013-08-10 12:33:00,67.1,62.4,30.10,WSW,237,1.0,3.0,85,0.00,OVC,OVC,0.00,WeatherDisplay:10.37,2013-08-10 19:33:00,
2013-08-10 12:38:00,67.6,62.0,30.10,South,177,0.0,2.0,82,0.00,OVC,OVC,0.00,WeatherDisplay:10.37,2013-08-10 19:38:00,
2013-08-10 12:43:00,68.2,62.1,30.10,SSE,161,1.0,5.0,81,0.00,OVC,OVC,0.00,WeatherDisplay:10.37,2013-08-10 19:43:00,
2013-08-10 12:48:00,68.6,62.6,30.10,SSE,162,0.0,2.0,81,0.00,OVC,OVC,0.00,WeatherDisplay:10.37,2013-08-10 19:48:00,
2013-08-10 12:53:00,68.9,62.5,30.09,SSE,163,1.0,3.0,80,0.00,OVC,OVC,0.00,WeatherDisplay:10.37,2013-08-10 19:53:00,
2013-08-10 12:58:00,69.1,63.0,30.09,SSE,162,0.0,2.0,81,0.00,OVC,OVC,0.00,WeatherDisplay:10.37,2013-08-10 19:58:00,
2013-08-10 13:03:00,69.4,62.9,30.09,South,171,1.0,3.0,80,0.00,OVC,OVC,0.00,WeatherDisplay:10.37,2013-08-10 20:03:00,
2013-08-10 13:08:00,69.6,62.8,30.09,SSE,165,1.0,4.0,79,0.00,OVC,OVC,0.00,WeatherDisplay:10.37,2013-08-10 20:08:00,
2013-08-10 13:13:00,69.9,62.8,30.09,SSW,194,1.0,3.0,78,0.00,OVC,OVC,0.00,WeatherDisplay:10.37,2013-08-10 20:13:00,
2013-08-10 13:18:00,70.4,62.8,30.09,SSW,204,1.0,3.0,77,0.00,OVC,OVC,0.00,WeatherDisplay:10.37,2013-08-10 20:18:00,
2013-08-10 13:23:00,70.7,62.4,30.09,SW,219,2.0,6.0,75,0.00,OVC,OVC,0.00,WeatherDisplay:10.37,2013-08-10 20:23:00,
2013-08-10 13:28:00,70.8,62.5,30.09,SW,227,1.0,3.0,75,0.00,OVC,OVC,0.00,WeatherDisplay:10.37,2013-08-10 20:28:00,
2013-08-10 13:33:00,70.8,62.5,30.09,South,173,1.0,4.0,75,0.00,OVC,OVC,0.00,WeatherDisplay:10.37,2013-08-10 20:33:00,
2013-08-10 13:38:00,70.8,62.9,30.08,SSE,153,1.0,2.0,76,0.00,OVC,OVC,0.00,WeatherDisplay:10.37,2013-08-10 20:38:00,
2013-08-10 13:43:00,70.8,62.9,30.08,SSE,153,1.0,3.0,76,0.00,OVC,OVC,0.00,WeatherDisplay:10.37,2013-08-10 20:43:00,
2013-08-10 13:48:00,71.0,62.6,30.08,SSW,196,1.0,4.0,75,0.00,OVC,OVC,0.00,WeatherDisplay:10.37,2013-08-10 20:48:00,
2013-08-10 13:53:00,71.1,62.4,30.08,WSW,256,0.0,3.0,74,0.00,OVC,OVC,0.00,WeatherDisplay:10.37,2013-08-10 20:53:00,
2013-08-10 13:58:00,71.3,62.9,30.08,WSW,249,1.0,3.0,75,0.00,OVC,OVC,0.00,WeatherDisplay:10.37,2013-08-10 20:58:00,
2013-08-10 14:03:00,71.4,62.7,30.08,SSW,207,1.0,4.0,74,0.00,OVC,OVC,0.00,WeatherDisplay:10.37,2013-08-10 21:03:00,
2013-08-10 14:08:00,71.7,63.0,30.08,South,181,0.0,3.0,74,0.00,OVC,OVC,0.00,WeatherDisplay:10.37,2013-08-10 21:08:00,
2013-08-10 14:13:00,71.9,62.8,30.08,South,170,0.0,5.0,73,0.00,OVC,OVC,0.00,WeatherDisplay:10.37,2013-08-10 21:13:00,
2013-08-10 14:18:00,72.2,62.7,30.07,SSW,207,1.0,7.0,72,0.00,OVC,OVC,0.00,WeatherDisplay:10.37,2013-08-10 21:18:00,
2013-08-10 14:23:00,72.4,62.5,30.07,SW,217,0.0,3.0,71,0.00,OVC,OVC,0.00,WeatherDisplay:10.37,2013-08-10 21:23:00,
2013-08-10 14:28:00,72.6,63.0,30.07,SSW,200,1.0,3.0,72,0.00,OVC,OVC,0.00,WeatherDisplay:10.37,2013-08-10 21:28:00,
2013-08-10 14:33:00,72.8,62.9,30.07,SSW,197,1.0,4.0,71,0.00,OVC,OVC,0.00,WeatherDisplay:10.37,2013-08-10 21:33:00,
2013-08-10 14:38:00,72.9,62.9,30.07,SSW,194,1.0,4.0,71,0.00,OVC,OVC,0.00,WeatherDisplay:10.37,2013-08-10 21:38:00,
2013-08-10 14:43:00,72.9,62.9,30.07,South,191,0.0,2.0,71,0.00,OVC,OVC,0.00,WeatherDisplay:10.37,2013-08-10 21:43:00,
2013-08-10 14:48:00,72.9,62.5,30.06,South,181,0.0,3.0,70,0.00,OVC,OVC,0.00,WeatherDisplay:10.37,2013-08-10 21:48:00,
2013-08-10 14:53:00,73.1,62.7,30.06,South,187,2.0,4.0,70,0.00,OVC,OVC,0.00,WeatherDisplay:10.37,2013-08-10 21:53:00,
2013-08-10 14:58:00,73.4,62.6,30.06,South,177,1.0,3.0,69,0.00,OVC,OVC,0.00,WeatherDisplay:10.37,2013-08-10 21:58:00,
2013-08-10 15:03:00,73.5,63.1,30.06,SSE,160,0.0,4.0,70,0.00,OVC,OVC,0.00,WeatherDisplay:10.37,2013-08-10 22:03:00,
2013-08-10 15:08:00,73.7,62.4,30.06,SSE,162,1.0,3.0,68,0.00,OVC,OVC,0.00,WeatherDisplay:10.37,2013-08-10 22:08:00,
2013-08-10 15:13:00,73.9,62.7,30.06,SSW,195,1.0,7.0,68,0.00,OVC,OVC,0.00,WeatherDisplay:10.37,2013-08-10 22:13:00,
2013-08-10 15:18:00,74.2,63.0,30.06,SW,221,1.0,4.0,68,0.00,OVC,OVC,0.00,WeatherDisplay:10.37,2013-08-10 22:18:00,
2013-08-10 15:23:00,74.6,63.3,30.05,South,188,1.0,3.0,68,0.00,OVC,OVC,0.00,WeatherDisplay:10.37,2013-08-10 22:23:00,
2013-08-10 15:28:00,75.0,63.2,30.05,WSW,246,3.0,7.0,67,0.00,OVC,OVC,0.00,WeatherDisplay:10.37,2013-08-10 22:28:00,
2013-08-10 15:33:00,75.4,62.8,30.05,West,273,1.0,9.0,65,0.00,OVC,OVC,0.00,WeatherDisplay:10.37,2013-08-10 22:33:00,
2013-08-10 15:38:00,75.8,63.2,30.05,WNW,284,1.0,3.0,65,0.00,OVC,OVC,0.00,WeatherDisplay:10.37,2013-08-10 22:38:00,
2013-08-10 15:43:00,76.1,63.0,30.05,West,263,2.0,4.0,64,0.00,OVC,OVC,0.00,WeatherDisplay:10.37,2013-08-10 22:43:00,
2013-08-10 15:48:00,76.4,63.7,30.05,SW,231,0.0,5.0,65,0.00,OVC,OVC,0.00,WeatherDisplay:10.37,2013-08-10 22:48:00,
2013-08-10 15:53:00,76.9,63.8,30.05,West,264,1.0,5.0,64,0.00,OVC,OVC,0.00,WeatherDisplay:10.37,2013-08-10 22:53:00,
2013-08-10 15:58:00,77.5,63.9,30.05,West,265,1.0,2.0,63,0.00,OVC,OVC,0.00,WeatherDisplay:10.37,2013-08-10 22:58:00,
2013-08-10 16:03:00,77.7,63.2,30.04,SW,225,1.0,4.0,61,0.00,OVC,OVC,0.00,WeatherDisplay:10.37,2013-08-10 23:03:00,
2013-08-10 16:08:00,77.9,64.7,30.04,West,264,0.0,4.0,64,0.00,OVC,OVC,0.00,WeatherDisplay:10.37,2013-08-10 23:08:00,
2013-08-10 16:13:00,78.5,63.9,30.04,West,281,0.0,5.0,61,0.00,OVC,OVC,0.00,WeatherDisplay:10.37,2013-08-10 23:13:00,
2013-08-10 16:18:00,78.8,63.7,30.04,West,265,1.0,3.0,60,0.00,OVC,OVC,0.00,WeatherDisplay:10.37,2013-08-10 23:18:00,
2013-08-10 16:23:00,78.7,64.6,30.04,SSW,209,0.0,4.0,62,0.00,OVC,OVC,0.00,WeatherDisplay:10.37,2013-08-10 23:23:00,
2013-08-10 16:28:00,78.3,63.3,30.04,SW,222,2.0,3.0,60,0.00,OVC,OVC,0.00,WeatherDisplay:10.37,2013-08-10 23:28:00,
2013-08-10 16:33:00,77.8,62.8,30.04,West,266,2.0,3.0,60,0.00,OVC,OVC,0.00,WeatherDisplay:10.37,2013-08-10 23:33:00,
2013-08-10 16:43:00,76.8,62.3,30.04,West,281,1.0,2.0,61,0.00,OVC,OVC,0.00,WeatherDisplay:10.37,2013-08-10 23:43:00,
2013-08-10 16:48:00,76.5,62.5,30.05,West,281,0.0,1.0,62,0.00,OVC,OVC,0.00,WeatherDisplay:10.37,2013-08-10 23:48:00,
2013-08-10 16:53:00,76.2,63.1,30.05,West,278,1.0,4.0,64,0.00,OVC,OVC,0.00,WeatherDisplay:10.37,2013-08-10 23:53:00,
2013-08-10 16:58:00,75.9,62.8,30.06,West,268,0.0,1.0,64,0.00,OVC,OVC,0.00,WeatherDisplay:10.37,2013-08-10 23:58:00,
2013-08-10 17:03:00,75.5,62.9,30.06,West,262,0.0,1.0,65,0.00,OVC,OVC,0.00,WeatherDisplay:10.37,2013-08-11 00:03:00,
2013-08-10 17:08:00,75.1,63.0,30.05,West,262,1.0,2.0,66,0.00,OVC,OVC,0.00,WeatherDisplay:10.37,2013-08-11 00:08:00,
2013-08-10 17:13:00,74.8,62.7,30.06,West,260,2.0,5.0,66,0.00,OVC,OVC,0.00,WeatherDisplay:10.37,2013-08-11 00:13:00,
2013-08-10 17:18:00,74.4,62.7,30.06,West,275,2.0,5.0,67,0.00,OVC,OVC,0.00,WeatherDisplay:10.37,2013-08-11 00:18:00,
2013-08-10 17:23:00,74.1,62.9,30.05,West,279,2.0,6.0,68,0.00,OVC,OVC,0.00,WeatherDisplay:10.37,2013-08-11 00:23:00,
2013-08-10 17:28:00,73.8,62.6,30.05,West,281,2.0,5.0,68,0.00,OVC,OVC,0.00,WeatherDisplay:10.37,2013-08-11 00:28:00,
2013-08-10 17:33:00,73.5,62.7,30.04,West,275,1.0,4.0,69,0.00,OVC,OVC,0.00,WeatherDisplay:10.37,2013-08-11 00:33:00,
2013-08-10 17:38:00,73.3,62.5,30.05,West,274,1.0,6.0,69,0.00,OVC,OVC,0.00,WeatherDisplay:10.37,2013-08-11 00:38:00,
2013-08-10 17:43:00,73.0,62.6,30.05,West,274,0.0,2.0,70,0.00,OVC,OVC,0.00,WeatherDisplay:10.37,2013-08-11 00:43:00,
2013-08-10 17:48:00,72.8,62.4,30.05,West,271,0.0,3.0,70,0.00,OVC,OVC,0.00,WeatherDisplay:10.37,2013-08-11 00:48:00,
2013-08-10 17:53:00,72.7,62.3,30.05,West,275,0.0,5.0,70,0.00,OVC,OVC,0.00,WeatherDisplay:10.37,2013-08-11 00:53:00,
2013-08-10 17:58:00,72.5,62.2,30.05,West,271,0.0,3.0,70,0.00,OVC,OVC,0.00,WeatherDisplay:10.37,2013-08-11 00:58:00,
2013-08-10 18:03:00,72.4,62.1,30.06,West,269,0.0,4.0,70,0.00,OVC,OVC,0.00,WeatherDisplay:10.37,2013-08-11 01:03:00,
2013-08-10 18:08:00,72.3,62.0,30.06,West,272,0.0,2.0,70,0.00,OVC,OVC,0.00,WeatherDisplay:10.37,2013-08-11 01:08:00,
2013-08-10 18:13:00,72.2,62.3,30.05,West,271,1.0,2.0,71,0.00,OVC,OVC,0.00,WeatherDisplay:10.37,2013-08-11 01:13:00,
2013-08-10 18:18:00,72.2,62.3,30.06,West,274,1.0,5.0,71,0.00,OVC,OVC,0.00,WeatherDisplay:10.37,2013-08-11 01:18:00,
2013-08-10 18:23:00,72.2,61.9,30.05,West,279,2.0,5.0,70,0.00,OVC,OVC,0.00,WeatherDisplay:10.37,2013-08-11 01:23:00,
2013-08-10 18:28:00,72.1,61.8,30.05,West,280,1.0,4.0,70,0.00,OVC,OVC,0.00,WeatherDisplay:10.37,2013-08-11 01:28:00,
2013-08-10 18:33:00,72.0,61.7,30.04,West,272,0.0,2.0,70,0.00,OVC,OVC,0.00,WeatherDisplay:10.37,2013-08-11 01:33:00,
2013-08-10 18:38:00,71.9,61.6,30.05,West,266,0.0,1.0,70,0.00,OVC,OVC,0.00,WeatherDisplay:10.37,2013-08-11 01:38:00,
2013-08-10 18:43:00,71.8,61.5,30.05,West,266,0.0,1.0,70,0.00,OVC,OVC,0.00,WeatherDisplay:10.37,2013-08-11 01:43:00,
2013-08-10 18:48:00,71.7,61.8,30.05,West,266,0.0,1.0,71,0.00,OVC,OVC,0.00,WeatherDisplay:10.37,2013-08-11 01:48:00,
2013-08-10 18:53:00,71.6,61.3,30.05,West,266,1.0,3.0,70,0.00,OVC,OVC,0.00,WeatherDisplay:10.37,2013-08-11 01:53:00,
2013-08-10 18:58:00,71.5,61.2,30.06,WSW,257,0.0,4.0,70,0.00,OVC,OVC,0.00,WeatherDisplay:10.37,2013-08-11 01:58:00,
2013-08-10 19:03:00,71.4,61.9,30.06,WSW,252,0.0,0.0,72,0.00,OVC,OVC,0.00,WeatherDisplay:10.37,2013-08-11 02:03:00,
2013-08-10 19:08:00,71.4,61.5,30.06,WSW,254,0.0,2.0,71,0.00,OVC,OVC,0.00,WeatherDisplay:10.37,2013-08-11 02:08:00,
2013-08-10 19:13:00,71.3,61.4,30.06,West,259,0.0,2.0,71,0.00,OVC,OVC,0.00,WeatherDisplay:10.37,2013-08-11 02:13:00,
2013-08-10 19:18:00,71.5,61.6,30.07,West,262,0.0,1.0,71,0.00,OVC,OVC,0.00,WeatherDisplay:10.37,2013-08-11 02:18:00,
2013-08-10 19:23:00,71.5,61.2,30.07,West,274,0.0,4.0,70,0.00,OVC,OVC,0.00,WeatherDisplay:10.37,2013-08-11 02:23:00,
2013-08-10 19:28:00,71.5,62.0,30.07,West,281,0.0,0.0,72,0.00,OVC,OVC,0.00,WeatherDisplay:10.37,2013-08-11 02:28:00,
2013-08-10 19:33:00,71.4,62.3,30.07,West,281,0.0,1.0,73,0.00,OVC,OVC,0.00,WeatherDisplay:10.37,2013-08-11 02:33:00,
2013-08-10 19:38:00,71.3,62.2,30.07,West,281,0.0,0.0,73,0.00,OVC,OVC,0.00,WeatherDisplay:10.37,2013-08-11 02:38:00,
2013-08-10 19:43:00,71.1,62.4,30.07,West,281,0.0,0.0,74,0.00,OVC,OVC,0.00,WeatherDisplay:10.37,2013-08-11 02:43:00,
2013-08-10 19:48:00,70.8,62.1,30.08,West,281,0.0,0.0,74,0.00,OVC,OVC,0.00,WeatherDisplay:10.37,2013-08-11 02:48:00,
2013-08-10 19:53:00,70.6,62.3,30.08,West,281,0.0,0.0,75,0.00,OVC,OVC,0.00,WeatherDisplay:10.37,2013-08-11 02:53:00,
2013-08-10 19:58:00,70.4,62.1,30.09,West,281,0.0,0.0,75,0.00,OVC,OVC,0.00,WeatherDisplay:10.37,2013-08-11 02:58:00,
2013-08-10 20:18:00,69.8,61.9,30.08,West,281,0.0,0.0,76,0.00,OVC,OVC,0.00,WeatherDisplay:10.37,2013-08-11 03:18:00,
2013-08-10 20:23:00,69.5,61.6,30.08,West,281,0.0,0.0,76,0.00,OVC,OVC,0.00,WeatherDisplay:10.37,2013-08-11 03:23:00,
2013-08-10 20:33:00,69.2,62.0,30.08,West,281,0.0,0.0,78,0.00,OVC,OVC,0.00,WeatherDisplay:10.37,2013-08-11 03:33:00,
2013-08-10 20:38:00,69.0,61.9,30.08,West,281,0.0,0.0,78,0.00,OVC,OVC,0.00,WeatherDisplay:10.37,2013-08-11 03:38:00,
2013-08-10 20:43:00,68.8,61.7,30.08,West,281,0.0,0.0,78,0.00,OVC,OVC,0.00,WeatherDisplay:10.37,2013-08-11 03:43:00,
2013-08-10 20:48:00,68.7,61.9,30.09,West,281,0.0,0.0,79,0.00,OVC,OVC,0.00,WeatherDisplay:10.37,2013-08-11 03:48:00,
2013-08-10 20:53:00,68.5,61.7,30.09,West,281,0.0,0.0,79,0.00,OVC,OVC,0.00,WeatherDisplay:10.37,2013-08-11 03:53:00,
2013-08-10 20:58:00,68.3,61.9,30.09,West,281,0.0,0.0,80,0.00,OVC,OVC,0.00,WeatherDisplay:10.37,2013-08-11 03:58:00,
2013-08-10 21:03:00,68.1,61.7,30.09,West,281,0.0,0.0,80,0.00,OVC,OVC,0.00,WeatherDisplay:10.37,2013-08-11 04:03:00,
2013-08-10 21:08:00,68.0,61.6,30.09,West,281,0.0,1.0,80,0.00,OVC,OVC,0.00,WeatherDisplay:10.37,2013-08-11 04:08:00,
2013-08-10 21:13:00,67.9,61.5,30.09,West,281,0.0,0.0,80,0.00,OVC,OVC,0.00,WeatherDisplay:10.37,2013-08-11 04:13:00,
2013-08-10 21:18:00,67.7,61.7,30.09,West,281,0.0,0.0,81,0.00,OVC,OVC,0.00,WeatherDisplay:10.37,2013-08-11 04:18:00,
2013-08-10 21:23:00,67.6,61.6,30.09,West,281,0.0,0.0,81,0.00,OVC,OVC,0.00,WeatherDisplay:10.37,2013-08-11 04:23:00,
2013-08-10 21:28:00,67.5,61.8,30.09,West,281,0.0,0.0,82,0.00,OVC,OVC,0.00,WeatherDisplay:10.37,2013-08-11 04:28:00,
2013-08-10 21:33:00,67.4,61.7,30.09,West,281,0.0,0.0,82,0.00,OVC,OVC,0.00,WeatherDisplay:10.37,2013-08-11 04:33:00,
2013-08-10 21:38:00,67.4,62.0,30.09,West,281,0.0,1.0,83,0.00,OVC,OVC,0.00,WeatherDisplay:10.37,2013-08-11 04:38:00,
2013-08-10 21:43:00,67.3,61.9,30.10,West,281,0.0,0.0,83,0.00,OVC,OVC,0.00,WeatherDisplay:10.37,2013-08-11 04:43:00,
2013-08-10 21:48:00,67.2,61.9,30.10,West,281,0.0,0.0,83,0.00,OVC,OVC,0.00,WeatherDisplay:10.37,2013-08-11 04:48:00,
2013-08-10 21:53:00,67.1,62.1,30.09,West,281,0.0,0.0,84,0.00,OVC,OVC,0.00,WeatherDisplay:10.37,2013-08-11 04:53:00,
2013-08-10 21:58:00,67.0,61.7,30.10,West,275,0.0,1.0,83,0.00,OVC,OVC,0.00,WeatherDisplay:10.37,2013-08-11 04:58:00,
2013-08-10 22:03:00,66.9,61.9,30.11,West,267,0.0,1.0,84,0.00,OVC,OVC,0.00,WeatherDisplay:10.37,2013-08-11 05:03:00,
2013-08-10 22:08:00,66.8,61.5,30.11,West,266,0.0,0.0,83,0.00,OVC,OVC,0.00,WeatherDisplay:10.37,2013-08-11 05:08:00,
2013-08-10 22:13:00,66.6,61.3,30.11,West,266,0.0,1.0,83,0.00,OVC,OVC,0.00,WeatherDisplay:10.37,2013-08-11 05:13:00,
2013-08-10 22:18:00,66.4,60.4,30.11,West,266,0.0,1.0,81,0.00,OVC,OVC,0.00,WeatherDisplay:10.37,2013-08-11 05:18:00,
2013-08-10 22:23:00,66.3,59.9,30.11,West,266,0.0,1.0,80,0.00,OVC,OVC,0.00,WeatherDisplay:10.37,2013-08-11 05:23:00,
2013-08-10 22:33:00,66.2,59.9,30.10,West,266,0.0,1.0,80,0.00,OVC,OVC,0.00,WeatherDisplay:10.37,2013-08-11 05:33:00,
2013-08-10 22:38:00,66.2,59.5,30.10,West,274,0.0,3.0,79,0.00,OVC,OVC,0.00,WeatherDisplay:10.37,2013-08-11 05:38:00,
2013-08-10 22:43:00,66.2,59.5,30.10,WNW,290,3.0,6.0,79,0.00,OVC,OVC,0.00,WeatherDisplay:10.37,2013-08-11 05:43:00,
2013-08-10 22:48:00,66.1,59.4,30.09,WNW,297,3.0,7.0,79,0.00,OVC,OVC,0.00,WeatherDisplay:10.37,2013-08-11 05:48:00,
2013-08-10 22:53:00,66.0,59.3,30.09,West,273,1.0,3.0,79,0.00,OVC,OVC,0.00,WeatherDisplay:10.37,2013-08-11 05:53:00,
2013-08-10 22:58:00,65.8,59.5,30.09,West,261,0.0,1.0,80,0.01,RA,RA,0.01,WeatherDisplay:10.37,2013-08-11 05:58:00,
2013-08-10 23:03:00,65.5,59.5,30.09,West,261,0.0,3.0,81,0.00,RA,RA,0.01,WeatherDisplay:10.37,2013-08-11 06:03:00,
2013-08-10 23:08:00,65.1,59.2,30.09,West,270,0.0,2.0,81,0.00,OVC,OVC,0.01,WeatherDisplay:10.37,2013-08-11 06:08:00,
2013-08-10 23:13:00,64.8,59.2,30.09,West,269,1.0,5.0,82,0.00,OVC,OVC,0.01,WeatherDisplay:10.37,2013-08-11 06:13:00,
2013-08-10 23:23:00,64.1,58.5,30.10,West,266,0.0,1.0,82,0.00,OVC,OVC,0.01,WeatherDisplay:10.37,2013-08-11 06:23:00,
2013-08-10 23:28:00,63.8,58.5,30.10,West,266,0.0,1.0,83,0.00,OVC,OVC,0.01,WeatherDisplay:10.37,2013-08-11 06:28:00,
2013-08-10 23:33:00,63.6,58.3,30.11,West,266,0.0,1.0,83,0.00,OVC,OVC,0.01,WeatherDisplay:10.37,2013-08-11 06:33:00,
2013-08-10 23:38:00,63.4,58.5,30.10,West,266,0.0,0.0,84,0.00,OVC,OVC,0.01,WeatherDisplay:10.37,2013-08-11 06:38:00,
2013-08-10 23:43:00,63.2,58.6,30.11,West,266,0.0,0.0,85,0.00,OVC,OVC,0.01,WeatherDisplay:10.37,2013-08-11 06:43:00,
2013-08-10 23:48:00,62.9,58.6,30.11,West,266,0.0,0.0,86,0.00,OVC,OVC,0.01,WeatherDisplay:10.37,2013-08-11 06:48:00,
2013-08-10 23:58:00,62.5,58.3,30.11,West,266,0.0,0.0,86,0.00,OVC,OVC,0.01,WeatherDisplay:10.37,2013-08-11 06:58:00,